User: anonymous   Login
Location: ??????
(41.3794°N, 22.5014°E)
Time: 04:42:36
(UTC+00:00)
Language:

Cosmos 1782 - Orbit

View from above orbital plane
View from above orbital plane
View from above satellite
View from above satellite

Ground track
Ground track

The orbit data is extracted from the following two-line orbital elements,

1 16986U 86074A   21058.56370659  .00000028  00000-0 -12533-6 0  9993
2 16986  82.5037 245.6706 0012153  53.2613 306.9729 15.07460848853206
Epoch (UTC): 27 February 2021 13:31:44
Eccentricity: 0.0012153
inclination: 82.5037°
perigee height: 535 km
apogee height: 552 km
right ascension of ascending node: 245.6706°
argument of perigee: 53.2613°
revolutions per day: 15.07460848
mean anomaly at epoch: 306.9729°
orbit number at epoch: 85320

The dashed part of the orbit path shows where the satellite is in the earth's shadow,  

DLR